User: anonymous   Login
Location: Unspecified
(0.0000°N, 0.0000°E)
Time: 01:22:17
(UTC+00:00)
Language:

COSMOS 2481 - Orbit

View from above orbital plane
View from above orbital plane
View from above satellite
View from above satellite

Ground track
Ground track

The orbit data is extracted from the following two-line orbital elements,

1 38733U 12041A   23088.27317558  .00000015  00000-0  33092-4 0  9998
2 38733  82.4698  88.3373 0019790 115.6559 244.6553 12.42397179483811
Epoch (UTC): 29 March 2023 06:33:22
Eccentricity: 0.0019790
inclination: 82.4698°
perigee height: 1481 km
apogee height: 1512 km
right ascension of ascending node: 88.3373°
argument of perigee: 115.6559°
revolutions per day: 12.42397179
mean anomaly at epoch: 244.6553°
orbit number at epoch: 48381

The dashed part of the orbit path shows where the satellite is in the earth's shadow,  

DLR